TIME,DELAY(SENSOR),PRES,OXYGEN,RAWTEMP,T(OPTODE),TCPHASE,FLUOR,BETA(BETA700),BETA(BETA412),BETA(BETA440),CDOM,C(CSC),ED(ED412.40),ED(ED444.00),ED(ED489.70),ED(ED554.30),LU(LU411.80),LU(LU443.40),LU(LU489.60),LU(LU554.10),COMP,TILTX,TILTY,CHECK
1342410296,5808,883.1199951171875000,44.8740501403808600,663.5681152343750000,4.5104331970214840,54.3214607238769500,53,100,87,79,82,15378,2147757549,2147421622,2148004736,2147876992,2147642788,2147066889,2148255332,2147193334,2950,5,13,24528
1342413892,5810,964.5800170898438000,47.3167495727539060,670.1309204101562000,4.2938752174377440,54.0499687194824200,53,98,90,79,81,15373,2147761307,2147424310,2148006784,2147871488,2147646208,2147059794,2148264512,2147199259,1098,4,13,16928
1342417492,5809,980.4899902343750000,47.7541618347168000,670.8021850585938000,4.2716941833496090,53.9928588867187500,53,97,88,80,82,15375,2147759890,2147419684,2148008603,2147875337,2147642770,2147056594,2148263259,2147197366,3480,5,13,30584
1342421092,5811,991.2999877929688000,47.1455802917480500,671.5120849609375000,4.2482318878173830,54.0909004211425800,53,100,88,80,82,15373,2147757997,2147420873,2148007222,2147874998,2147640786,2147062107,2148258093,2147198098,3589,4,13,36283
1342424692,5808,991.0900268554688000,47.4747009277343750,670.9484863281250000,4.2668609619140625,54.0327301025390600,53,96,89,78,82,15368,2147759945,2147421229,2148006436,2147874633,2147644086,2147055707,2148253988,2147199058,116,4,13,16121
1342428292,5807,988.8900146484375000,47.1111297607421900,671.1105957031250000,4.2615032196044920,54.0863685607910160,53,98,89,80,82,15367,2147759414,2147419437,2148006070,2147875556,2147641289,2147058523,2148261833,2147198290,442,5,13,51991
1342431892,5806,995.4500122070312000,47.3920288085937500,672.8317871093750000,4.2046051025390625,54.0738105773925800,53,98,87,79,82,15371,2147757842,2147420242,2148006884,2147874185,2147642934,2147061458,2148259556,2147199899,3462,5,13,46602
1342435492,5809,998.7600097656250000,46.6299095153808600,672.0814819335938000,4.2294120788574220,54.1643714904785160,53,98,88,79,82,15369,2147760320,2147421915,2148006555,2147873344,2147641645,2147060589,2148261101,2147197467,42,5,13,46852
1342439092,5811,993.4799804687500000,46.9928398132324200,672.6386108398438000,4.2109951972961430,54.1260108947753900,51,98,88,80,81,15372,2147755099,2147420635,2148006875,2147876589,2147641371,2147065088,2148260059,2147199433,320,5,13,17408
1342442692,5812,987.2000122070312000,47.4905395507812500,673.9461059570312000,4.1677532196044920,54.0687103271484400,53,99,91,79,83,15372,2147759643,2147419099,2148009426,2147875666,2147644333,2147055990,2148262774,2147198902,60,5,13,64040
1342446292,5809,985.9600219726562000,48.0438804626464840,675.2418823242188000,4.1248822212219240,54.0066604614257800,53,100,86,80,81,15371,2147759579,2147419017,2148008164,2147872969,2147644233,2147057225,2148254482,2147199350,291,4,13,32269
1342449892,5807,987.4799804687500000,48.0487899780273440,675.6165771484375000,4.1124801635742190,54.0112495422363300,53,100,84,78,82,15372,2147759780,2147421348,2148008694,2147873334,2147641901,2147060416,2148260662,2147203410,151,5,13,12086
1342453492,5808,992.4799804687500000,48.1231918334960940,675.1768798828125000,4.1270308494567870,53.9950714111328100,52,101,91,80,81,15371,2147763501,2147423506,2148005723,2147873737,2147644781,2147063332,2148259565,2147202221,3537,5,13,14876
1342457092,5811,994.8300170898438000,47.6537284851074200,674.4561767578125000,4.1508789062500000,54.0515403747558600,52,97,84,80,82,15369,2147760658,2147421385,2148009124,2147877924,2147646674,2147061942,2148258678,2147200557,3590,4,13,34253
1342460692,5809,996.0399780273438000,47.4402198791503900,673.9797973632812000,4.1666388511657715,54.0792884826660160,52,98,89,79,83,15364,2147757741,2147418550,2148004105,2147875812,2147639881,2147060416,2148261668,2147200941,153,4,13,63870
1342464292,5810,987.7299804687500000,47.6860198974609400,675.1555175781250000,4.1277389526367190,54.0598411560058600,52,99,92,79,82,15367,2147758098,2147419565,2148009490,2147873865,2147645558,2147055835,2148259666,2147203026,279,5,13,5060
1342467892,5809,994.1400146484375000,47.7208709716796900,674.8771972656250000,4.1369500160217285,54.0491714477539060,52,99,88,79,83,15369,2147759936,2147424036,2148010148,2147875053,2147641920,2147060397,2148261851,2147200155,79,5,13,21560
1342471492,5808,996.1199951171875000,47.7563209533691400,674.9838867187500000,4.1334209442138670,54.0424995422363300,53,98,90,79,82,15369,2147762761,2147422564,2148006235,2147871716,2147644224,2147059456,2148262272,2147197366,250,5,13,64275
1342475092,5808,1002.7000122070312000,47.2892417907714840,673.7186279296875000,4.1752800941467285,54.0919609069824200,53,102,92,81,83,15368,2147758692,2147421092,2148007268,2147872804,2147638957,2147055478,2148257664,2147203309,3568,4,13,8107
1342478692,5808,1005.9099731445312000,46.7974205017089840,672.4739990234375000,4.2164378166198730,54.1529502868652340,53,99,90,79,82,15351,2147758326,2147417691,2148003529,2147874203,2147642157,2147061659,2148255725,2147200420,3489,4,13,18
1342482292,5809,1005.3099975585938000,46.4276390075683600,672.6491699218750000,4.2106437683105470,54.2017288208007800,53,100,88,79,81,15359,2147759926,2147422930,2148009691,2147877284,2147643200,2147058843,2148260507,2147202212,3247,5,13,57841
1342485892,5810,1003.7000122070312000,46.7855300903320300,672.7141723632812000,4.2084941864013670,54.1544609069824200,53,100,85,79,81,15355,2147761700,2147420388,2148006930,2147878144,2147643282,2147059200,2148260388,2147203044,149,5,13,28425
1342489492,5808,1003.5200195312500000,47.1819305419921900,673.1901855468750000,4.1927528381347660,54.1026496887207000,52,99,88,80,81,15358,2147759058,2147420717,2148007076,2147874212,2147645312,2147058980,2148258889,2147198564,418,4,13,57877
1342493092,5807,1001.5000000000000000,47.1813507080078100,673.2260131835938000,4.1915721893310550,54.1064605712890600,54,100,92,79,82,15359,2147761334,2147421065,2148007552,2147874057,2147641060,2147059593,2148257316,2147200466,250,5,13,8663
1342496692,5809,995.3400268554688000,46.8801689147949200,674.0573730468750000,4.1640739440917970,54.1590614318847660,53,98,89,80,82,15359,2147757330,2147421284,2148005924,2147873828,2147640987,2147062902,2148258505,2147202258,3485,4,13,46364
1342500292,5806,1004.7700195312500000,47.1455192565918000,674.3040161132812000,4.1559138298034670,54.1240196228027340,53,98,90,80,83,15357,2147758610,2147421083,2148008594,2147871945,2147644379,2147061220,2148255113,2147202130,3394,5,13,44651
1342503892,5806,1005.7700195312500000,47.2547988891601560,673.5170288085938000,4.1819481849670410,54.0940017700195300,52,100,88,79,81,15358,2147756077,2147422921,2148007268,2147871725,2147641709,2147065536,2148262317,2147199332,133,4,13,11009
1342507492,5809,1001.7199707031250000,46.9572410583496100,674.2305297851562000,4.1583461761474610,54.1460685729980500,52,98,89,79,82,15308,2147760877,2147422747,2148005988,2147873965,2147642560,2147059026,2148256832,2147203565,3148,4,13,43618
1342511092,5807,1005.1500244140625000,47.1700515747070300,673.3267211914062000,4.1882419586181640,54.1037292480468750,53,100,86,79,82,15306,2147757120,2147422144,2148010587,2147874157,2147640457,2147067062,2148256173,2147203931,944,5,13,38734
1342514692,5810,1001.3599853515625000,47.0367317199707000,673.9301757812500000,4.1682820320129395,54.1315193176269500,52,99,87,78,81,15306,2147760768,2147423414,2148006336,2147875309,2147640228,2147064045,2148258505,2147201974,92,5,13,40687
1342518292,5806,1005.7199707031250000,47.0549201965332000,673.9509277343750000,4.1675968170166020,54.1303901672363300,53,99,87,80,82,15305,2147758208,2147420096,2148011062,2147875904,2147643017,2147061284,2148264109,2147198765,92,5,13,18846
1342521892,5812,1005.4799804687500000,47.0390090942382800,674.0711059570312000,4.1636199951171875,54.1360092163085940,52,100,86,79,83,15303,2147760027,2147420169,2148005805,2147868891,2147644836,2147065517,2148264118,2147201106,22,5,13,44942
1342525492,5808,1010.1199951171875000,47.2506713867187500,673.6887817382812000,4.1762638092041020,54.0981407165527340,52,101,90,78,83,15306,2147758235,2147421412,2148009691,2147874806,2147639424,2147059328,2148257417,2147200886,10,5,13,1303
1342529092,5809,1011.2700195312500000,46.2766189575195300,673.4810791015625000,4.1831359863281250,54.2331199645996100,52,100,87,78,82,15306,2147759616,2147422765,2148007707,2147875410,2147637860,2147053833,2148262683,2147201755,423,5,13,8666
1342532692,5811,1009.2000122070312000,46.3475494384765600,673.4448242187500000,4.1843380928039550,54.2241401672363300,52,99,91,78,81,15305,2147754688,2147419675,2148007040,2147875474,2147642797,2147060845,2148259858,2147199643,496,5,13,30492
1342536292,5810,1004.2000122070312000,46.4805793762207000,673.8853759765625000,4.1697621345520020,54.2136917114257800,52,96,88,78,82,15305,2147757705,2147423140,2148008841,2147873334,2147642130,2147060726,2148264850,2147196763,14,5,13,34367
1342539892,5808,999.2500000000000000,47.2734794616699200,675.5181274414062000,4.1157398223876950,54.1179008483886700,53,101,86,78,83,15306,2147756864,2147420498,2148006884,2147874971,2147642505,2147059163,2148263716,2147199862,147,5,13,35377
1342543492,5808,1006.1099853515625000,47.6100196838378900,675.3383789062500000,4.1216869354248050,54.0679588317871100,53,98,89,80,82,15305,2147757897,2147425161,2148006902,2147874889,2147645732,2147062162,2148264640,2147198034,3340,4,13,63040
1342547092,5809,996.6400146484375000,47.5467605590820300,676.0593872070312000,4.0978221893310550,54.0906410217285160,52,98,89,79,82,15305,2147759954,2147418422,2148005467,2147876269,2147641481,2147057737,2148260854,2147200356,474,5,13,55283
1342550692,5809,1001.5200195312500000,48.4877700805664060,676.6276245117188000,4.0790138244628910,53.9657707214355500,53,100,88,79,82,15305,2147759853,2147418944,2148005632,2147873691,2147642304,2147059904,2148257526,2147202742,3344,5,13,32870
1342554292,5808,996.5000000000000000,47.9658813476562500,676.7860717773438000,4.0737628936767580,54.0371704101562500,53,100,88,79,83,15302,2147761691,2147421650,2148008228,2147875245,2147642230,2147057892,2148260434,2147199012,317,4,13,34778
1342554656,5809,999.0900268554688000,48.1982307434082000,677.0119018554688000,4.0662879943847660,54.0103683471679700,53,102,89,79,81,15367,2147759177,2147419072,2148005485,2147874834,2147644434,2147058578,2148255204,2147202368,3524,4,13,3141
